Location: Althorst
(53.6379°N, 10.7715°E)
Time: 14:07:12
(UTC+00:00)

USA 215 - Pass Details

Date: 10 December 2019
Orbit: 1099 x 1109 km, 123.0° (Epoch: 03 January)

Event Time Altitude Azimuth Distance (km) Brightness Sun altitude
Exits shadow 19:05:18 60° 315° (NW) 1,249 3.6 -35.3°
Drops below altitude 10° 19:10:51 10° 277° (W) 2,966 6.3 -36.1°
Sets 19:13:21 0° 275° (W) 3,925 7.1 -36.5°
